Home   Weather   Kielce   Past weeks

Flag for Poland Past Weather in Kielce, Poland — Yesterday and Last 2 Weeks

Now
17 °F

Fog.


Feels Like: 17 °F
Forecast: 18 / 24 °F
Wind: No wind

Location: Kielce

Current Time: Jan 17, 2017 at 6:14:34 am

Latest Report: Jan 17, 2017 at 5:00 am


Visibility: 1 mi

Pressure: 30.46 "Hg

Humidity: 89%

Dew Point: 14 °F

Location of KielceLocation

Past Weather in Kielce — Graph

°F

Kielce Temperature Yesterday

Maximum temperature yesterday: 29 °F (at 2:00 pm)
Minimum temperature yesterday: 14 °F (at 11:00 pm)
Average temperature yesterday: 23 °F

High & Low Weather Summary for the Past Weeks

 TemperatureHumidityPressure
High37 °F (Jan 13, 7:00 pm)95% (Jan 2, 6:00 pm)30.67 "Hg (Jan 2, 6:00 pm)
Low-15 °F (Jan 8, 4:00 am)54% (Jan 11, 3:00 pm)29.32 "Hg (Jan 4, 6:00 pm)
Average19 °F82%30.05 "Hg
* Reported Jan 2 4:00 am — Jan 17 4:00 am, Kielce, Weather by CustomWeather, © 2017

Note: Actual official high and low records may vary slightly from our data, if they occured in-between our weather recording intervals... More about our weather records

Advertising

Kielce Weather History for the Previous 24 Hours

Scroll right to see more
 ConditionsComfort  
Time TempWeatherWind HumidityBarometerVisibility
4:00 am
Tue, Jan 17
15 °FFog.1 mph89%30.45 "Hg1 mi
3:00 am12 °FFog.1 mph86%30.44 "Hg1 mi
2:00 am11 °FFog.1 mph88%30.43 "Hg1 mi
1:00 am12 °FFog.1 mph87%30.41 "Hg1 mi
12:00 am13 °FFog.No wind90%30.39 "Hg0 mi
11:00 pm
Mon, Jan 16
14 °FFog.1 mph89%30.38 "Hg1 mi
10:00 pm17 °FFog.1 mph91%30.37 "Hg0 mi
9:00 pm20 °FFog.1 mph92%30.34 "Hg1 mi
8:00 pm25 °FFog.1 mph89%30.31 "Hg1 mi
7:00 pm27 °FFog.No wind85%30.29 "Hg4 mi
6:00 pm28 °FFog.1 mph82%30.26 "Hg3 mi
5:00 pm29 °FFog.2 mph79%30.25 "Hg6 mi
4:00 pm29 °FFog.1 mph80%30.23 "Hg4 mi
3:00 pm29 °FFog.1 mph80%30.22 "Hg5 mi
2:00 pm29 °FFog.1 mph82%30.20 "Hg4 mi
1:00 pm29 °FFog.2 mph83%30.19 "Hg3 mi
12:00 pm28 °FLow clouds.2 mph89%30.19 "Hg2 mi
11:00 am26 °FLow clouds.2 mph91%30.19 "Hg2 mi
10:00 am24 °FSnow flurries. Low clouds.1 mph91%30.20 "Hg2 mi
9:00 am23 °FSnow flurries. Low clouds.1 mph92%30.19 "Hg2 mi
8:00 am22 °FSnow flurries. Low clouds.No wind91%30.17 "Hg2 mi
7:00 am22 °FLight snow. Low clouds.1 mph91%30.15 "Hg2 mi
6:00 am22 °FSnow showers. Low clouds.No wind91%30.13 "Hg1 mi
Weather by CustomWeather, © 2017

See weather overviewHow to use our weather pages